[[{"header":{"parameterUnit":"m.s-1","parameterCategory":2,"la1":30.2991,"la2":30.254,"lo1":-89.0895,"lo2":-89.0444,"dy":0.0017,"dx":0.0017,"nx":28,"ny":28,"refTime":"2024-07-02T21:00:00:Z","depth":"0","parameterNumber":2,"parameterNumberName":"U-component_of_CURRENTS"},"data":[0,0,0,0,0,0,0,0,0,0,0,0,0,0,0,0,0,0,0,0,0,0,0,0,0,0,0,0,0,0,0,0,0,0,0,0,0,0,0,0,0,0,0,0,0,0,0,0,0,0,0,0,0,0,0,0,0,0,0.3055,0.3056,0,0.3201,0.3203,0.3205,0.3281,0.3281,0.3281,0.3281,0.3535,0.3541,0.3548,0,0,0,0,0,0,0,0,0,0,0,0,0,0.289,0.2893,0.3055,0.3056,0.3058,0.3201,0.3203,0.3205,0.3281,0.3281,0.3281,0.3281,0.3533,0.3541,0.3549,0,0,0,0,0,0,0,0,0,0,0,0,0,0.2992,0.2893,0.3054,0.3113,0.312,0.3201,0.3203,0.3206,0.3281,0.3281,0.3281,0.3281,0.353,0.354,0.355,0.3609,0,0,0.358,0.3585,0,0,0,0,0,0,0,0,0.2986,0.2998,0.3103,0.3109,0.3117,0.3223,0.3238,0.3346,0.3281,0.322,0.3281,0.3281,0.344,0.3458,0.3484,0.3621,0.3632,0.3581,0.3587,0.3592,0.3594,0,0,0,0,0,0,0,0.2979,0.2992,0.3113,0.3105,0.3113,0.3149,0.3164,0.3259,0.333,0.3225,0.3231,0.3247,0.3445,0.3474,0.349,0.3635,0.3581,0.359,0.3596,0.36,0.3887,0.3889,0,0,0,0,0,0,0.2958,0.2985,0.3108,0.3117,0.305,0.3152,0.3168,0.3189,0.3326,0.3347,0.3247,0.325,0.3456,0.3479,0.35,0.3655,0.3592,0.3601,0.3607,0.3886,0.3888,0.3889,0,0,0,0,0,0,0.2954,0.2968,0.3102,0.3054,0.3074,0.3154,0.3177,0.3191,0.3227,0.3342,0.3364,0.3268,0.3457,0.3486,0.3583,0.3662,0.3605,0.3615,0.3884,0.3886,0.3888,0.3916,0,0,0,0,0,0,0.2949,0.2965,0.2981,0.3053,0.3076,0.3162,0.3178,0.3194,0.3236,0.3242,0.3368,0.3391,0.346,0.3567,0.3592,0.3675,0.3622,0.3882,0.3885,0.3888,0.3913,0.3919,0.3924,0,0,0,0,0,0.2942,0.2993,0.2981,0.2997,0.3092,0.3163,0.3179,0.3236,0.3237,0.3265,0.3333,0.3387,0.3605,0.3576,0.3605,0.3693,0.388,0.3884,0.3887,0.391,0.3918,0.3924,0,0,0,0,0,0,0.2975,0.3007,0.2996,0.3063,0.31,0.3176,0.3218,0.3234,0.3307,0.3315,0.3403,0.3432,0.3549,0.3602,0.3567,0.378,0.3755,0.3765,0.3763,0.3771,0.3776,0.3843,0.3631,0,0,0,0,0,0.2971,0.2986,0.3032,0.308,0.3097,0.3143,0.3179,0.3209,0.3277,0.3309,0.3382,0.3476,0.3587,0.3657,0.3744,0.3861,0.3912,0.3936,0.3941,0.3946,0.4018,0.4142,0.4167,0.3901,0.3901,0.3901,0,0,0.2993,0.3015,0.3024,0.308,0.3113,0.3185,0.3167,0.3225,0.3305,0.3329,0.3448,0.3492,0.3614,0.3743,0.3803,0.3803,0.4028,0.3951,0.3954,0.4026,0.4149,0.4175,0.4199,0.3904,0.3903,0.3903,0,0,0.3059,0.3061,0.3095,0.313,0.3173,0.3213,0.3223,0.3282,0.3327,0.3425,0.3468,0.3566,0.3704,0.3826,0.3907,0.4002,0.4039,0.4,0.4116,0.4233,0.4257,0.4279,0.4289,0.4312,0.4022,0.4022,0.4022,0,0.3083,0.3145,0.3123,0.3183,0.3238,0.3228,0.3313,0.3367,0.3448,0.3508,0.3473,0.3701,0.378,0.4,0.4028,0.4031,0.4044,0.4078,0.4243,0.4267,0.429,0.4296,0.4321,0.4024,0.4023,0.4023,0.4023,0,0.3177,0.3235,0.327,0.333,0.3381,0.3451,0.3509,0.356,0.3588,0.3644,0.3799,0.3881,0.4037,0.4056,0.4088,0.429,0.4222,0.4217,0.4229,0.4319,0.4317,0.4343,0.4026,0.4025,0.4025,0.4024,0,0,0.3217,0.3314,0.3327,0.3396,0.3468,0.3536,0.3649,0.3772,0.3872,0.3924,0.408,0.4239,0.424,0.4333,0.436,0.4464,0.459,0.4408,0.4413,0.4423,0.4762,0.4538,0.4543,0.4592,0.4599,0.4604,0.4664,0,0.3304,0.3454,0.3473,0.3637,0.3732,0.3761,0.3876,0.3974,0.4041,0.4169,0.4265,0.4406,0.436,0.4425,0.4529,0.4589,0.4674,0.4571,0.4675,0.4678,0.4474,0.4575,0.4244,0.4256,0.469,0.4694,0.4697,0,0.3392,0.3494,0.3664,0.382,0.3859,0.3951,0.4126,0.4224,0.4375,0.4424,0.4553,0.4589,0.4777,0.4699,0.4887,0.4804,0.4813,0.4828,0.483,0.4659,0.4508,0.4257,0.4288,0.4113,0.4737,0.4734,0.4731,0,0.347,0.3629,0.3778,0.3834,0.4,0.4089,0.4174,0.4312,0.439,0.459,0.4638,0.4837,0.4912,0.5015,0.5008,0.4971,0.5148,0.5106,0.491,0.4888,0.4659,0.4606,0.4557,0.5268,0.5268,0.5268,0.5267,0,0.3588,0.3708,0.3828,0.3931,0.4096,0.4177,0.434,0.4443,0.4568,0.4654,0.4767,0.4849,0.4994,0.5064,0.5086,0.5051,0.5216,0.4975,0.4931,0.464,0.4589,0.4467,0.446,0.527,0.5269,0.5269,0.5268,0,0.3678,0.3754,0.3929,0.4102,0.4145,0.4271,0.4386,0.4486,0.4591,0.4705,0.4762,0.4893,0.4977,0.5042,0.5184,0.5098,0.4955,0.5074,0.4659,0.4566,0.4189,0.4196,0.4085,0.3997,0.4898,0.4893,0.4889,0,0.3747,0.385,0.4022,0.4098,0.4182,0.4327,0.4398,0.4507,0.4571,0.4695,0.4742,0.4849,0.4886,0.4957,0.4865,0.4847,0.4776,0.4511,0.4425,0.4162,0.4141,0.4039,0.3969,0.4093,0.4083,0.4075,0.4068,0,0.3893,0.3932,0.407,0.4185,0.428,0.4356,0.4454,0.448,0.4571,0.4616,0.466,0.4703,0.4692,0.4516,0.4444,0.439,0.4234,0.4336,0.4223,0.3662,0.3402,0.329,0.3999,0.3995,0.4002,0.4007,0.4011,0.4014,0.3972,0.4061,0.4179,0.4262,0.4337,0.4339,0.4322,0.437,0.4385,0.4317,0.4473,0.4375,0.42,0.404,0.397,0.3523,0.3723,0.3342,0.3413,0.3363,0.3163,0.3656,0.3502,0.3506,0.351,0.3513,0.3516,0,0.4064,0.4131,0.4229,0.4288,0.4268,0.4309,0.4302,0.4192,0.4093,0.4075,0.4028,0.3718,0.345,0.3274,0.281,0.2617,0.2542,0.2528,0.2342,0.2362,0.2908,0.2751,0.2233,0.2233,0.2233,0.2233,0.2234,0.2234,0.4135,0.4222,0.4219,0.4167,0.4157,0.4024,0.3952,0.3791,0.3711,0.3377,0.3127,0.3055,0.2819,0.24,0.2003,0.1939,0.1861,0.1675,0.1873,0.2243,0.2324,0.2402,0.2249,0.1635,0.1634,0.111,0.1106,0.1103]},{"header":{"parameterUnit":"m.s-1","parameterCategory":2,"la1":30.2991,"la2":30.254,"lo1":-89.0895,"lo2":-89.0444,"dy":0.0017,"dx":0.0017,"nx":28,"ny":28,"refTime":"2024-07-02T21:00:00:Z","depth":"0","parameterNumber":3,"parameterNumberName":"V-component_of_CURRENTS"},"data":[0,0,0,0,0,0,0,0,0,0,0,0,0,0,0,0,0,0,0,0,0,0,0,0,0,0,0,0,0,0,0,0,0,0,0,0,0,0,0,0,0,0,0,0,0,0,0,0,0,0,0,0,0,0,0,0,0,0,0.0322,0.0322,0,0.0358,0.0358,0.0359,0.0341,0.034,0.0339,0.0338,0.0369,0.0371,0.0373,0,0,0,0,0,0,0,0,0,0,0,0,0,0.0265,0.0266,0.0322,0.0322,0.0322,0.0358,0.0358,0.0359,0.0341,0.034,0.0338,0.0337,0.0369,0.0371,0.0373,0,0,0,0,0,0,0,0,0,0,0,0,0,0.0295,0.0266,0.0322,0.0317,0.0317,0.0357,0.0358,0.0359,0.0341,0.034,0.0338,0.0337,0.0368,0.0371,0.0373,0.0421,0,0,0.0382,0.0383,0,0,0,0,0,0,0,0,0.0293,0.0297,0.0317,0.0317,0.0317,0.0342,0.035,0.0379,0.0342,0.0333,0.0338,0.0336,0.036,0.0364,0.0375,0.0422,0.0424,0.0382,0.0383,0.0385,0.0385,0,0,0,0,0,0,0,0.0291,0.0295,0.0337,0.0318,0.0318,0.0322,0.0325,0.0355,0.0356,0.0334,0.0332,0.0335,0.036,0.0373,0.0376,0.0424,0.0382,0.0384,0.0386,0.0387,0.0582,0.0586,0,0,0,0,0,0,0.0285,0.0294,0.0336,0.0338,0.03,0.0324,0.0327,0.0337,0.0355,0.0356,0.0336,0.0334,0.0369,0.0373,0.0377,0.0476,0.0385,0.0387,0.0389,0.0579,0.0583,0.0587,0,0,0,0,0,0,0.0284,0.0289,0.0334,0.0315,0.0321,0.0327,0.0338,0.0338,0.0353,0.0357,0.0358,0.035,0.0368,0.0373,0.0422,0.0475,0.0388,0.0391,0.0574,0.058,0.0585,0.0647,0,0,0,0,0,0,0.0282,0.0289,0.0297,0.0315,0.0322,0.0373,0.0339,0.034,0.0356,0.0354,0.037,0.0371,0.0367,0.0418,0.0425,0.0477,0.0393,0.057,0.0577,0.0583,0.064,0.0654,0.0665,0,0,0,0,0,0.028,0.0306,0.0298,0.0303,0.0333,0.0375,0.038,0.0378,0.0359,0.0382,0.0393,0.0371,0.0466,0.0423,0.043,0.0484,0.0567,0.0575,0.0583,0.0635,0.0651,0.0665,0,0,0,0,0,0,0.0288,0.0307,0.0298,0.0327,0.0352,0.0371,0.039,0.0389,0.0416,0.041,0.0406,0.041,0.0476,0.0481,0.0434,0.0566,0.0518,0.0528,0.0555,0.0571,0.0583,0.0631,0.0395,0,0,0,0,0,0.0293,0.0317,0.0334,0.036,0.037,0.0381,0.0396,0.0399,0.0421,0.0431,0.0441,0.047,0.0518,0.0541,0.0575,0.0643,0.064,0.069,0.0702,0.0712,0.0761,0.0835,0.0858,0.0613,0.0613,0.0613,0,0,0.0299,0.0317,0.0327,0.0363,0.0376,0.0423,0.0387,0.042,0.0468,0.0433,0.0497,0.0508,0.0546,0.0621,0.0653,0.0628,0.0762,0.0723,0.073,0.0775,0.0846,0.087,0.0891,0.0619,0.0618,0.0617,0,0,0.0347,0.0343,0.0385,0.0411,0.0442,0.0455,0.0468,0.0494,0.0512,0.0574,0.0569,0.0624,0.0675,0.0727,0.0758,0.0871,0.0822,0.0871,0.0974,0.1044,0.1064,0.1083,0.1015,0.1027,0.088,0.088,0.088,0,0.0353,0.041,0.0405,0.0459,0.0487,0.0475,0.0533,0.0564,0.0606,0.0646,0.0606,0.0737,0.0744,0.0877,0.091,0.0901,0.0883,0.0901,0.1058,0.1077,0.1095,0.1022,0.1034,0.0884,0.0883,0.0883,0.0883,0,0.044,0.0482,0.0511,0.0572,0.0604,0.0651,0.0683,0.0722,0.0729,0.0768,0.0878,0.0901,0.0987,0.0994,0.0984,0.1129,0.1048,0.1054,0.101,0.1122,0.1037,0.1049,0.089,0.0888,0.0887,0.0886,0,0,0.0462,0.0553,0.0564,0.0607,0.0664,0.0702,0.0784,0.087,0.0945,0.0984,0.1106,0.1178,0.1185,0.1227,0.1223,0.1285,0.1341,0.1227,0.1229,0.114,0.1396,0.132,0.1323,0.1369,0.1374,0.1378,0.1249,0,0.0532,0.0647,0.0676,0.0782,0.0836,0.0856,0.0939,0.1012,0.1068,0.1181,0.1238,0.1342,0.1277,0.132,0.1379,0.1397,0.1393,0.1369,0.1321,0.1318,0.1225,0.1346,0.1321,0.1208,0.126,0.1262,0.1264,0,0.0607,0.0677,0.079,0.0888,0.0913,0.0975,0.1094,0.1169,0.1313,0.1363,0.1476,0.1516,0.1643,0.1557,0.1619,0.1605,0.1505,0.1474,0.1468,0.1407,0.1272,0.1129,0.1227,0.1129,0.1281,0.128,0.1279,0,0.0632,0.075,0.0841,0.0876,0.099,0.1046,0.1104,0.1229,0.1325,0.1493,0.1591,0.1713,0.18,0.1777,0.171,0.1672,0.1737,0.1667,0.1471,0.1456,0.1439,0.1419,0.1442,0.1669,0.1669,0.1669,0.167,0,0.0698,0.0773,0.0857,0.0914,0.1028,0.1079,0.1221,0.1298,0.1456,0.1613,0.1688,0.1839,0.1873,0.191,0.1788,0.1691,0.1785,0.1525,0.1471,0.1447,0.143,0.1347,0.131,0.1664,0.1666,0.1667,0.1667,0,0.0733,0.0791,0.0896,0.1008,0.1049,0.1125,0.1279,0.1393,0.1516,0.1731,0.1798,0.1974,0.2033,0.198,0.195,0.1792,0.1636,0.1593,0.1498,0.1439,0.1164,0.1132,0.1135,0.1116,0.137,0.1368,0.1367,0,0.0767,0.0822,0.0947,0.1013,0.1072,0.1189,0.1287,0.1418,0.1549,0.1815,0.1936,0.2068,0.2193,0.21,0.1893,0.1663,0.1566,0.1411,0.1366,0.1193,0.1118,0.1099,0.1083,0.1298,0.1296,0.1295,0.1293,0,0.0823,0.0857,0.0943,0.1067,0.1171,0.1307,0.145,0.1564,0.1748,0.1935,0.2176,0.2301,0.2235,0.2103,0.1795,0.1607,0.1385,0.1365,0.1278,0.117,0.1072,0.1011,0.1228,0.1279,0.128,0.1281,0.1282,0.1283,0.0849,0.0904,0.0998,0.1118,0.1249,0.1413,0.1535,0.1713,0.1935,0.2216,0.2313,0.2519,0.2256,0.1892,0.1666,0.1194,0.1249,0.1026,0.1012,0.1015,0.1014,0.1141,0.1095,0.1096,0.1096,0.1096,0.1096,0,0.0868,0.0936,0.1044,0.1199,0.1343,0.1411,0.1643,0.1789,0.2053,0.2304,0.2507,0.2462,0.2152,0.1784,0.1157,0.0895,0.0833,0.0764,0.0761,0.0772,0.0953,0.0968,0.0789,0.0789,0.0789,0.0789,0.079,0.079,0.0888,0.0972,0.1022,0.1236,0.136,0.1562,0.1698,0.1941,0.216,0.2414,0.2522,0.2591,0.2239,0.1328,0.0766,0.0659,0.0565,0.0511,0.0498,0.0618,0.0642,0.0665,0.0674,0.0436,0.0435,0.0335,0.0334,0.0333]}],[{"header":{"parameterUnit":"m.s-1","parameterCategory":2,"la1":30.2991,"la2":30.254,"lo1":-89.0895,"lo2":-89.0444,"dy":0.0017,"dx":0.0017,"nx":28,"ny":28,"refTime":"2024-07-02T21:00:00:Z","depth":"2","parameterNumber":2,"parameterNumberName":"U-component_of_CURRENTS"},"data":[0,0,0,0,0,0,0,0,0,0,0,0,0,0,0,0,0,0,0,0,0,0,0,0,0,0,0,0,0,0,0,0,0,0,0,0,0,0,0,0,0,0,0,0,0,0,0,0,0,0,0,0,0,0,0,0,0,0,0.2426,0.2427,0,0.2501,0.2502,0.2503,0.2548,0.2548,0.2548,0.2548,0.2714,0.2718,0.2723,0,0,0,0,0,0,0,0,0,0,0,0,0,0.2361,0.2362,0.2426,0.2427,0.2427,0.2501,0.2502,0.2503,0.2548,0.2548,0.2548,0.2548,0.2713,0.2718,0.2723,0,0,0,0,0,0,0,0,0,0,0,0,0,0.241,0.2363,0.2426,0.2457,0.2461,0.25,0.2502,0.2503,0.2548,0.2548,0.2548,0.2548,0.2711,0.2717,0.2724,0.2762,0,0,0.2744,0.2747,0,0,0,0,0,0,0,0,0.2407,0.2412,0.2452,0.2455,0.2459,0.2514,0.254,0.2594,0.2548,0.2517,0.2548,0.2548,0.2655,0.2666,0.2681,0.277,0.2777,0.2744,0.2748,0.2751,0.2753,0,0,0,0,0,0,0,0.2403,0.2409,0.2457,0.2453,0.2457,0.2482,0.2488,0.255,0.2587,0.2519,0.2522,0.2528,0.2657,0.2674,0.2685,0.278,0.2744,0.275,0.2754,0.2757,0.3101,0.3106,0,0,0,0,0,0,0.2389,0.2406,0.2455,0.2459,0.2431,0.2482,0.249,0.2497,0.2584,0.2597,0.2528,0.253,0.2663,0.2677,0.2691,0.2784,0.2751,0.2757,0.2761,0.3096,0.3103,0.3108,0,0,0,0,0,0,0.2387,0.2393,0.2452,0.2433,0.2442,0.2483,0.2491,0.2499,0.253,0.259,0.2604,0.2552,0.2663,0.2682,0.2751,0.279,0.276,0.2766,0.309,0.3098,0.3105,0.2944,0,0,0,0,0,0,0.2385,0.2392,0.2401,0.2432,0.2442,0.2483,0.2491,0.25,0.2532,0.2535,0.2615,0.263,0.2665,0.2741,0.2758,0.2798,0.2771,0.3083,0.3094,0.3103,0.2943,0.2945,0.2947,0,0,0,0,0,0.2383,0.2409,0.2401,0.2407,0.2451,0.2484,0.2492,0.2522,0.2533,0.255,0.2598,0.2628,0.282,0.2747,0.2767,0.281,0.3079,0.3091,0.3102,0.2941,0.2945,0.2947,0,0,0,0,0,0,0.24,0.2416,0.2409,0.2441,0.2456,0.2491,0.2527,0.253,0.2581,0.2594,0.2643,0.2662,0.2751,0.2828,0.2748,0.2962,0.2977,0.2993,0.2849,0.2853,0.2855,0.2902,0.2777,0,0,0,0,0,0.2399,0.2413,0.243,0.2451,0.2473,0.2496,0.2517,0.2526,0.2568,0.2591,0.2646,0.274,0.2818,0.2863,0.2951,0.3032,0.3101,0.3106,0.3108,0.3108,0.3175,0.3327,0.3346,0.3147,0.3147,0.3147,0,0,0.2409,0.242,0.2428,0.2453,0.2482,0.2507,0.2512,0.2549,0.2576,0.2604,0.2685,0.2736,0.2846,0.2932,0.2988,0.2992,0.3176,0.3123,0.312,0.3189,0.3341,0.3359,0.3376,0.3155,0.3153,0.3152,0,0,0.2427,0.2454,0.2466,0.2482,0.2509,0.2531,0.254,0.2582,0.262,0.2675,0.2717,0.2793,0.2915,0.2989,0.3044,0.3137,0.3179,0.3185,0.3221,0.3363,0.3379,0.3394,0.3356,0.3369,0.3188,0.3187,0.3187,0,0.2438,0.2452,0.2476,0.2492,0.2524,0.2542,0.2573,0.2608,0.266,0.27,0.2705,0.2896,0.2958,0.3072,0.3107,0.3135,0.3173,0.3156,0.3355,0.3374,0.3392,0.3351,0.3368,0.3181,0.3182,0.3183,0.3183,0,0.2452,0.247,0.2496,0.2517,0.2555,0.259,0.2636,0.2671,0.2715,0.2746,0.2868,0.2947,0.3054,0.3099,0.3122,0.329,0.3248,0.3313,0.3309,0.34,0.3352,0.3371,0.3172,0.3174,0.3176,0.3178,0,0,0.2463,0.2496,0.2502,0.2489,0.2577,0.2577,0.2671,0.2736,0.2769,0.2851,0.2946,0.3068,0.3089,0.3166,0.3205,0.3355,0.3433,0.3391,0.3402,0.3284,0.3626,0.3422,0.3423,0.3523,0.353,0.3535,0.3479,0,0.2471,0.2464,0.2524,0.2533,0.2539,0.2614,0.2682,0.2737,0.282,0.291,0.3027,0.3143,0.3117,0.3175,0.329,0.3451,0.3509,0.3436,0.3626,0.3629,0.3384,0.3452,0.315,0.3068,0.35,0.3503,0.3505,0,0.2473,0.2456,0.249,0.2491,0.2513,0.2556,0.2651,0.2701,0.285,0.2927,0.3043,0.3144,0.332,0.3339,0.355,0.35,0.3551,0.3659,0.366,0.3575,0.3472,0.3094,0.3089,0.354,0.3537,0.3535,0.3532,0,0.2419,0.2424,0.2445,0.2457,0.2498,0.2555,0.2588,0.2717,0.2837,0.2979,0.3133,0.3234,0.342,0.3516,0.3656,0.3631,0.3917,0.3887,0.3712,0.3689,0.3535,0.3489,0.4058,0.4058,0.4058,0.4058,0.4058,0,0.2408,0.2374,0.2407,0.2413,0.2443,0.2479,0.2613,0.264,0.285,0.3007,0.3134,0.3315,0.3527,0.3692,0.3699,0.3736,0.3902,0.374,0.3714,0.3452,0.3403,0.3949,0.3937,0.4056,0.4056,0.4057,0.4057,0,0.2333,0.2365,0.2355,0.2403,0.2446,0.245,0.2685,0.2752,0.2934,0.318,0.3276,0.3509,0.3641,0.375,0.3949,0.3835,0.3874,0.384,0.3419,0.3345,0.3496,0.3478,0.3586,0.358,0.3574,0.357,0.3566,0,0.2288,0.23,0.2375,0.2411,0.246,0.2543,0.2641,0.2801,0.2929,0.3264,0.3371,0.3631,0.3654,0.3759,0.3686,0.3567,0.377,0.3253,0.3178,0.3511,0.3474,0.3464,0.3454,0.2833,0.2823,0.2815,0.2809,0,0.2247,0.2311,0.2328,0.241,0.2507,0.2614,0.2754,0.2877,0.3071,0.3244,0.3396,0.3443,0.3515,0.3274,0.3191,0.3094,0.3224,0.3083,0.3659,0.2998,0.2799,0.2762,0.2778,0.274,0.2747,0.2752,0.2755,0.2758,0.2263,0.2273,0.2371,0.2412,0.2521,0.2627,0.2675,0.2804,0.2946,0.3069,0.3193,0.3099,0.3074,0.2725,0.2593,0.253,0.2749,0.2621,0.2648,0.2682,0.2606,0.241,0.2251,0.2255,0.2258,0.2261,0.2264,0,0.2298,0.2325,0.2364,0.2449,0.251,0.2601,0.2715,0.2672,0.2698,0.2756,0.2762,0.2379,0.2161,0.2175,0.193,0.1851,0.1859,0.1795,0.1818,0.1886,0.1947,0.1838,0.1277,0.1274,0.1271,0.1269,0,0,0.2335,0.2342,0.2331,0.2422,0.2495,0.2572,0.2584,0.2432,0.2381,0.2163,0.2058,0.2105,0.2085,0.1678,0.1583,0.1412,0.165,0.1333,0.2123,0.2222,0.2281,0.2412,0.2317,0,0,0,0,0]},{"header":{"parameterUnit":"m.s-1","parameterCategory":2,"la1":30.2991,"la2":30.254,"lo1":-89.0895,"lo2":-89.0444,"dy":0.0017,"dx":0.0017,"nx":28,"ny":28,"refTime":"2024-07-02T21:00:00:Z","depth":"2","parameterNumber":3,"parameterNumberName":"V-component_of_CURRENTS"},"data":[0,0,0,0,0,0,0,0,0,0,0,0,0,0,0,0,0,0,0,0,0,0,0,0,0,0,0,0,0,0,0,0,0,0,0,0,0,0,0,0,0,0,0,0,0,0,0,0,0,0,0,0,0,0,0,0,0,0,0.0106,0.0106,0,0.0109,0.0109,0.011,0.0085,0.0085,0.0084,0.0083,0.0022,0.0021,0.002,0,0,0,0,0,0,0,0,0,0,0,0,0,0.0077,0.0078,0.0106,0.0106,0.0106,0.0109,0.0109,0.011,0.0085,0.0085,0.0084,0.0083,0.0022,0.0021,0.002,0,0,0,0,0,0,0,0,0,0,0,0,0,0.0087,0.0079,0.0106,0.0094,0.0092,0.0109,0.0109,0.011,0.0086,0.0084,0.0083,0.0082,0.0023,0.0021,0.002,0.0035,0,0,0.0016,0.0015,0,0,0,0,0,0,0,0,0.0087,0.0089,0.0096,0.0095,0.0093,0.0095,0.0077,0.0081,0.0086,0.009,0.0083,0.0082,0.004,0.0038,0.0043,0.0033,0.003,0.0016,0.0015,0.0014,0.0014,0,0,0,0,0,0,0,0.0086,0.0088,0.0109,0.0096,0.0094,0.0087,0.0087,0.0078,0.0071,0.0089,0.0087,0.0086,0.0039,0.0045,0.0042,0.0029,0.0016,0.0015,0.0014,0.0013,0.0052,0.0054,0,0,0,0,0,0,0.0085,0.0088,0.0109,0.0109,0.0086,0.0088,0.0089,0.0096,0.0073,0.0068,0.0087,0.0085,0.0048,0.0043,0.0039,0.005,0.0014,0.0013,0.0012,0.0051,0.0053,0.0055,0,0,0,0,0,0,0.0085,0.0087,0.0109,0.0097,0.0099,0.009,0.0099,0.0097,0.0103,0.0072,0.0066,0.0095,0.0047,0.0041,0.0047,0.0048,0.0013,0.0011,0.0048,0.0051,0.0054,0.0076,0,0,0,0,0,0,0.0084,0.0088,0.0094,0.0097,0.0099,0.0123,0.01,0.0098,0.0104,0.0101,0.0076,0.007,0.0045,0.0049,0.0046,0.0045,0.001,0.0046,0.005,0.0053,0.0073,0.0079,0.0084,0,0,0,0,0,0.0083,0.0098,0.0094,0.0097,0.0108,0.0123,0.0125,0.0114,0.0105,0.0115,0.0106,0.007,0.0068,0.005,0.0045,0.0044,0.0044,0.0049,0.0053,0.007,0.0078,0.0084,0,0,0,0,0,0,0.0081,0.0097,0.0093,0.0109,0.0117,0.0119,0.0126,0.0123,0.0126,0.0124,0.0093,0.0086,0.0094,0.0079,0.006,0.0072,0.0051,0.0055,0.0066,0.0073,0.0079,0.0093,0.0009,0,0,0,0,0,0.0086,0.0107,0.0112,0.0126,0.0131,0.0131,0.0136,0.0135,0.0137,0.0137,0.0123,0.0114,0.011,0.0099,0.0099,0.0101,0.011,0.0102,0.0108,0.0112,0.0125,0.02,0.0213,0.0068,0.0068,0.0068,0,0,0.0085,0.01,0.0108,0.0128,0.0132,0.015,0.0132,0.0148,0.0158,0.013,0.0143,0.0137,0.0121,0.0127,0.0128,0.0109,0.0146,0.0118,0.0121,0.0131,0.0206,0.022,0.0232,0.0071,0.0071,0.007,0,0,0.0104,0.0112,0.0135,0.015,0.0166,0.0169,0.0176,0.0187,0.0185,0.0204,0.0187,0.0193,0.0183,0.0174,0.0165,0.0209,0.0184,0.0201,0.0224,0.0296,0.0309,0.032,0.029,0.0298,0.0192,0.0192,0.0192,0,0.0101,0.0134,0.0143,0.0171,0.0183,0.018,0.0203,0.0206,0.0219,0.0219,0.0213,0.0225,0.0209,0.0211,0.0225,0.0219,0.023,0.0189,0.0303,0.0315,0.0326,0.0293,0.0302,0.0194,0.0194,0.0194,0.0193,0,0.014,0.0164,0.018,0.0215,0.0229,0.0252,0.0256,0.0268,0.0268,0.0267,0.0282,0.0278,0.0276,0.0275,0.0258,0.0313,0.0281,0.0309,0.028,0.0342,0.0302,0.0311,0.0196,0.0196,0.0195,0.0195,0,0,0.0142,0.0196,0.0203,0.0231,0.0257,0.0279,0.0291,0.0303,0.0324,0.0323,0.0349,0.034,0.033,0.0324,0.0305,0.0364,0.0425,0.0369,0.0372,0.0327,0.0522,0.0446,0.0448,0.0486,0.0489,0.0492,0.044,0,0.0169,0.0231,0.0246,0.03,0.033,0.0334,0.036,0.037,0.037,0.0397,0.0376,0.0398,0.0345,0.0358,0.0398,0.0452,0.0462,0.0432,0.048,0.0479,0.0399,0.0462,0.0452,0.0404,0.0449,0.0451,0.0452,0,0.02,0.0244,0.0296,0.0362,0.0377,0.0405,0.0446,0.0467,0.0479,0.0476,0.0463,0.0457,0.0482,0.0471,0.0526,0.0514,0.0508,0.0538,0.0537,0.0474,0.0425,0.0365,0.0419,0.0467,0.0466,0.0464,0.0463,0,0.021,0.0278,0.0323,0.0345,0.0413,0.0436,0.0467,0.0489,0.0519,0.0525,0.0565,0.0551,0.06,0.0608,0.0614,0.0591,0.0707,0.0676,0.057,0.0559,0.0564,0.055,0.072,0.072,0.072,0.0721,0.0721,0,0.0235,0.0278,0.0337,0.0369,0.0452,0.0472,0.0541,0.056,0.0595,0.0684,0.0607,0.0697,0.0667,0.0708,0.0661,0.0641,0.0723,0.0582,0.0571,0.0561,0.0549,0.0629,0.0619,0.0719,0.0719,0.0719,0.072,0,0.0243,0.0275,0.0348,0.0427,0.046,0.0518,0.0604,0.0671,0.0675,0.0794,0.0809,0.0839,0.0894,0.0812,0.0857,0.0726,0.0704,0.0666,0.0595,0.0577,0.0467,0.0459,0.0512,0.0509,0.0507,0.0505,0.0504,0,0.0257,0.029,0.0396,0.0472,0.0513,0.0594,0.0684,0.0707,0.0789,0.0922,0.1019,0.1064,0.1123,0.1045,0.0874,0.0702,0.0717,0.0539,0.0491,0.0477,0.046,0.0455,0.045,0.0471,0.0469,0.0468,0.0467,0,0.0295,0.0324,0.0396,0.054,0.0645,0.0763,0.0883,0.096,0.1052,0.1165,0.1365,0.141,0.1285,0.1133,0.0827,0.0703,0.0552,0.0501,0.0593,0.0519,0.0434,0.0418,0.0416,0.0455,0.0456,0.0457,0.0458,0.0458,0.0336,0.0395,0.0492,0.0632,0.0766,0.0943,0.1045,0.1204,0.1373,0.1562,0.1608,0.1641,0.1384,0.0983,0.0761,0.0477,0.0491,0.0363,0.037,0.0377,0.0377,0.0294,0.0281,0.0281,0.0281,0.0281,0.0281,0,0.041,0.0476,0.0595,0.0768,0.0923,0.0977,0.1198,0.1315,0.156,0.1712,0.1833,0.1544,0.131,0.1015,0.0587,0.032,0.0307,0.0229,0.0289,0.0301,0.0312,0.031,0.0195,0.0194,0.0194,0.0193,0,0,0.0455,0.0573,0.0624,0.087,0.0996,0.1173,0.1302,0.1519,0.1638,0.1802,0.1788,0.1731,0.1351,0.1021,0.0689,0.0461,0.0434,0.0391,0.0481,0.0603,0.0617,0.04,0.0412,0,0,0,0,0]}],[{"header":{"parameterUnit":"m.s-1","parameterCategory":2,"la1":30.2991,"la2":30.254,"lo1":-89.0895,"lo2":-89.0444,"dy":0.0017,"dx":0.0017,"nx":28,"ny":28,"refTime":"2024-07-02T21:00:00:Z","depth":"4","parameterNumber":2,"parameterNumberName":"U-component_of_CURRENTS"},"data":[0,0,0,0,0,0,0,0,0,0,0,0,0,0,0,0,0,0,0,0,0,0,0,0,0,0,0,0,0,0,0,0,0,0,0,0,0,0,0,0,0,0,0,0,0,0,0,0,0,0,0,0,0,0,0,0,0,0,0.1277,0.1276,0,0.1249,0.125,0.125,0.1235,0.1234,0.1233,0.1233,0.1105,0.1103,0.11,0,0,0,0,0,0,0,0,0,0,0,0,0,0.1354,0.1353,0.1277,0.1276,0.1275,0.1249,0.125,0.125,0.1235,0.1234,0.1233,0.1232,0.1106,0.1103,0.11,0,0,0,0,0,0,0,0,0,0,0,0,0,0.133,0.1353,0.1277,0.1258,0.1256,0.1249,0.125,0.125,0.1235,0.1234,0.1233,0.1232,0.1107,0.1103,0.1099,0.1097,0,0,0.1087,0.1085,0,0,0,0,0,0,0,0,0.1332,0.1328,0.1262,0.126,0.1257,0.1238,0.123,0.1191,0.1235,0.1251,0.1233,0.1231,0.1136,0.113,0.1139,0.1091,0.1085,0.1087,0.1084,0.1083,0.1081,0,0,0,0,0,0,0,0.1333,0.133,0.1274,0.1261,0.1258,0.1264,0.126,0.1224,0.1204,0.125,0.1247,0.1232,0.1135,0.1144,0.1136,0.1083,0.1087,0.1083,0.1081,0.1079,0.0965,0.0964,0,0,0,0,0,0,0.132,0.1331,0.1274,0.1272,0.1284,0.1263,0.1259,0.1251,0.1207,0.1197,0.1233,0.1231,0.1151,0.1141,0.1131,0.1146,0.1083,0.1079,0.1076,0.0965,0.0964,0.0964,0,0,0,0,0,0,0.1322,0.1316,0.1275,0.1294,0.1289,0.1262,0.1254,0.1251,0.1293,0.1194,0.1184,0.128,0.115,0.1137,0.1119,0.1139,0.1077,0.1073,0.0966,0.0965,0.0964,0.116,0,0,0,0,0,0,0.1325,0.1317,0.1327,0.1294,0.1287,0.1273,0.1254,0.1251,0.1279,0.1278,0.123,0.1215,0.1148,0.1125,0.1115,0.1132,0.107,0.0967,0.0966,0.0964,0.1155,0.1166,0.1176,0,0,0,0,0,0.1328,0.1315,0.1328,0.1321,0.1294,0.1273,0.1272,0.1254,0.1283,0.1294,0.1272,0.1219,0.1108,0.1124,0.1111,0.1128,0.0967,0.0966,0.0965,0.115,0.1164,0.1176,0,0,0,0,0,0,0.1346,0.1311,0.1324,0.1302,0.1298,0.1267,0.1271,0.129,0.1292,0.1298,0.1239,0.1222,0.1219,0.1134,0.1153,0.108,0.1018,0.1014,0.1162,0.1175,0.1186,0.1178,0.1067,0,0,0,0,0,0.1359,0.1351,0.1326,0.1319,0.1318,0.1323,0.1324,0.132,0.1304,0.1309,0.1282,0.1231,0.1199,0.1161,0.1117,0.1086,0.107,0.1072,0.1083,0.1093,0.1072,0.1136,0.1154,0.0959,0.0959,0.0959,0,0,0.1364,0.1346,0.1342,0.1325,0.1327,0.1319,0.1323,0.1327,0.1329,0.129,0.1303,0.1296,0.1208,0.1183,0.1166,0.1114,0.1137,0.1092,0.1102,0.1073,0.1137,0.1157,0.1175,0.0958,0.0958,0.0959,0,0,0.1354,0.1362,0.1352,0.1349,0.1345,0.1342,0.136,0.1362,0.1371,0.1381,0.1364,0.1368,0.1303,0.1251,0.1213,0.1246,0.1223,0.1228,0.1252,0.1319,0.1337,0.1353,0.1368,0.1384,0.12,0.1201,0.1201,0,0.1366,0.1345,0.1349,0.1338,0.1327,0.1362,0.1352,0.1368,0.137,0.1376,0.1387,0.1369,0.1323,0.1292,0.1304,0.1275,0.1305,0.1232,0.1343,0.1358,0.1371,0.1382,0.1398,0.121,0.1209,0.1208,0.1207,0,0.1346,0.1337,0.1331,0.1331,0.133,0.1325,0.1331,0.1357,0.1396,0.141,0.1438,0.1417,0.1386,0.1389,0.136,0.1412,0.1404,0.1395,0.1336,0.1405,0.1409,0.1422,0.1223,0.122,0.1217,0.1215,0,0,0.1331,0.1318,0.1318,0.1298,0.1321,0.1298,0.1326,0.1333,0.136,0.14,0.1426,0.1425,0.1464,0.142,0.1415,0.1464,0.1606,0.1479,0.1478,0.1537,0.1754,0.1597,0.1594,0.1669,0.1671,0.1674,0.1727,0,0.1314,0.1268,0.1286,0.1254,0.1219,0.1259,0.1276,0.1298,0.1347,0.1387,0.1409,0.145,0.1457,0.1489,0.1543,0.1599,0.1646,0.159,0.1635,0.1634,0.1525,0.1605,0.1682,0.1736,0.1738,0.174,0.1742,0,0.1271,0.124,0.1203,0.1174,0.1172,0.1187,0.121,0.1236,0.1311,0.136,0.1423,0.1471,0.1532,0.1554,0.1672,0.166,0.1712,0.1756,0.1759,0.1543,0.1499,0.164,0.1763,0.1762,0.176,0.1758,0.1757,0,0.1187,0.1165,0.1127,0.1119,0.1122,0.1133,0.1162,0.1234,0.1276,0.1377,0.1445,0.1513,0.1583,0.167,0.1771,0.1752,0.1923,0.1883,0.1774,0.1762,0.1806,0.1788,0.1975,0.1975,0.1975,0.1974,0.1974,0,0.1112,0.1073,0.1091,0.1059,0.1039,0.1078,0.1117,0.1159,0.1273,0.1339,0.1447,0.1513,0.1645,0.1751,0.1804,0.1832,0.1947,0.178,0.1774,0.1881,0.1871,0.1816,0.1797,0.1976,0.1976,0.1976,0.1975,0,0.101,0.1022,0.0966,0.098,0.0992,0.0984,0.1087,0.1124,0.1263,0.136,0.1411,0.1559,0.1682,0.179,0.1928,0.1861,0.1908,0.1896,0.2002,0.2002,0.1678,0.1668,0.1714,0.1709,0.1705,0.1702,0.1699,0,0.0949,0.0912,0.0908,0.0894,0.0911,0.0939,0.0973,0.1098,0.1155,0.1372,0.1394,0.1574,0.1658,0.1729,0.1827,0.188,0.187,0.185,0.1741,0.1666,0.1657,0.1653,0.1648,0.1692,0.1691,0.169,0.1689,0,0.0837,0.0857,0.0835,0.0824,0.0838,0.0831,0.0893,0.0931,0.1102,0.1246,0.137,0.1447,0.1564,0.1632,0.172,0.175,0.1827,0.1805,0.1811,0.1708,0.164,0.1634,0.1634,0.1674,0.1677,0.1678,0.1679,0,0.0785,0.0752,0.076,0.0742,0.0762,0.0729,0.0758,0.0841,0.0926,0.1174,0.1209,0.1409,0.156,0.1567,0.1643,0.1663,0.1589,0.1499,0.1519,0.1536,0.1449,0.1334,0.1274,0,0,0,0,0,0.0709,0.0667,0.0666,0.0634,0.0671,0.0668,0.0715,0.0767,0.0942,0.0994,0.1109,0.1222,0.1324,0.1401,0.1379,0.1491,0.1565,0.1448,0.1463,0.1595,0.1611,0.1523,0,0,0,0,0,0,0.065,0.0632,0.0638,0.0593,0.0567,0.0572,0.0591,0.0679,0.071,0.0906,0.0976,0.1116,0.1235,0.136,0.1363,0.1379,0.1345,0.1559,0.1553,0.1585,0.16,0.1614,0.1529,0,0,0,0,0]},{"header":{"parameterUnit":"m.s-1","parameterCategory":2,"la1":30.2991,"la2":30.254,"lo1":-89.0895,"lo2":-89.0444,"dy":0.0017,"dx":0.0017,"nx":28,"ny":28,"refTime":"2024-07-02T21:00:00:Z","depth":"4","parameterNumber":3,"parameterNumberName":"V-component_of_CURRENTS"},"data":[0,0,0,0,0,0,0,0,0,0,0,0,0,0,0,0,0,0,0,0,0,0,0,0,0,0,0,0,0,0,0,0,0,0,0,0,0,0,0,0,0,0,0,0,0,0,0,0,0,0,0,0,0,0,0,0,0,0,0.008,0.008,0,0.0079,0.0079,0.0079,0.008,0.008,0.008,0.008,0.011,0.0111,0.0111,0,0,0,0,0,0,0,0,0,0,0,0,0,0.0053,0.0054,0.008,0.008,0.008,0.0079,0.0079,0.0079,0.008,0.008,0.008,0.008,0.0109,0.011,0.0111,0,0,0,0,0,0,0,0,0,0,0,0,0,0.0061,0.0054,0.008,0.0079,0.0079,0.0079,0.0079,0.0079,0.008,0.008,0.008,0.008,0.0109,0.011,0.0112,0.0121,0,0,0.0115,0.0116,0,0,0,0,0,0,0,0,0.006,0.0062,0.008,0.0079,0.0079,0.0079,0.008,0.0094,0.008,0.0081,0.008,0.008,0.0102,0.0103,0.0105,0.0123,0.0124,0.0116,0.0116,0.0117,0.0117,0,0,0,0,0,0,0,0.006,0.0062,0.0081,0.0079,0.0079,0.0069,0.007,0.0083,0.0093,0.0081,0.0081,0.0079,0.0102,0.0103,0.0105,0.0124,0.0116,0.0117,0.0117,0.0118,0.0136,0.0135,0,0,0,0,0,0,0.006,0.0062,0.0081,0.008,0.0068,0.007,0.0071,0.008,0.0092,0.0094,0.0079,0.0079,0.0101,0.0104,0.0106,0.0113,0.0117,0.0118,0.0119,0.0136,0.0136,0.0135,0,0,0,0,0,0,0.0059,0.0062,0.0081,0.0069,0.0071,0.007,0.008,0.008,0.0083,0.009,0.0092,0.0082,0.0101,0.0105,0.0113,0.0114,0.0119,0.012,0.0136,0.0136,0.0136,0.0129,0,0,0,0,0,0,0.0059,0.0062,0.0068,0.007,0.0072,0.0086,0.008,0.008,0.0081,0.0081,0.0094,0.0096,0.0101,0.011,0.0114,0.0116,0.0121,0.0137,0.0136,0.0136,0.0129,0.0128,0.0127,0,0,0,0,0,0.0058,0.0069,0.0068,0.007,0.008,0.0086,0.0087,0.0086,0.0082,0.0088,0.0087,0.0096,0.0109,0.0111,0.0115,0.0118,0.0137,0.0136,0.0136,0.013,0.0129,0.0127,0,0,0,0,0,0,0.0056,0.007,0.0069,0.0082,0.0085,0.0086,0.0089,0.0087,0.0092,0.0094,0.0096,0.0098,0.0103,0.0111,0.0113,0.012,0.0124,0.0124,0.0118,0.0117,0.0116,0.0142,0.0122,0,0,0,0,0,0.0058,0.0076,0.0078,0.0089,0.009,0.0089,0.0091,0.0094,0.0096,0.0098,0.0102,0.0105,0.0103,0.0111,0.0113,0.0124,0.0124,0.0126,0.0125,0.0124,0.0147,0.0124,0.0122,0.0133,0.0133,0.0133,0,0,0.0057,0.007,0.0076,0.0091,0.0092,0.0104,0.0091,0.01,0.0115,0.0102,0.0119,0.0103,0.0103,0.0107,0.011,0.0116,0.012,0.0123,0.0122,0.0146,0.0123,0.0122,0.0121,0.0133,0.0133,0.0133,0,0,0.0069,0.0077,0.0094,0.0103,0.0113,0.0116,0.0119,0.0122,0.0128,0.0137,0.0123,0.0106,0.0119,0.0109,0.0107,0.0104,0.011,0.0105,0.0129,0.0105,0.0104,0.0103,0.0098,0.0097,0.0109,0.0109,0.0109,0,0.0065,0.0098,0.0097,0.0116,0.0134,0.0123,0.0148,0.0148,0.0154,0.0164,0.0147,0.0134,0.012,0.012,0.0111,0.0103,0.01,0.0132,0.0104,0.0103,0.0103,0.0097,0.0096,0.0109,0.0109,0.0109,0.0109,0,0.009,0.0118,0.0129,0.0158,0.017,0.0193,0.0197,0.0207,0.0205,0.0203,0.0199,0.0164,0.0161,0.0138,0.0125,0.0115,0.0117,0.0099,0.0108,0.0101,0.0096,0.0095,0.0108,0.0109,0.0109,0.0109,0,0,0.0085,0.0139,0.0145,0.0183,0.0205,0.0226,0.0245,0.0269,0.029,0.0265,0.0276,0.0238,0.0211,0.0207,0.0172,0.0143,0.0115,0.0125,0.0124,0.0124,0.008,0.0052,0.0048,0.009,0.009,0.009,0.0076,0,0.0112,0.0175,0.019,0.0253,0.0291,0.03,0.0325,0.0341,0.0339,0.034,0.029,0.0284,0.024,0.0229,0.019,0.0129,0.0114,0.0122,0.0086,0.0086,0.0064,0.0047,0.009,0.0076,0.0076,0.0075,0.0075,0,0.0134,0.0188,0.0257,0.0337,0.0352,0.0384,0.044,0.0461,0.0451,0.0442,0.0414,0.0371,0.0321,0.0276,0.0195,0.0204,0.0158,0.0108,0.0106,0.0088,0.0056,0.0085,0.0074,0.0074,0.0074,0.0074,0.0074,0,0.0161,0.0237,0.0308,0.0334,0.0405,0.0446,0.0483,0.05,0.0533,0.0509,0.0509,0.0441,0.0404,0.033,0.0222,0.0214,0.0126,0.01,0.0042,0.004,0.0074,0.0075,0.0065,0.0065,0.0065,0.0066,0.0066,0,0.0199,0.0258,0.0335,0.0381,0.0471,0.0501,0.0584,0.0595,0.0614,0.0646,0.0571,0.0554,0.0415,0.0339,0.0248,0.0138,0.0151,0.0056,0.0033,0.0071,0.0072,0.0073,0.0075,0.0065,0.0065,0.0065,0.0065,0,0.0221,0.0267,0.0356,0.0452,0.0491,0.0556,0.0663,0.0714,0.072,0.0749,0.0745,0.0643,0.0535,0.0407,0.0267,0.0177,0.0073,0.0041,0.0107,0.0087,0.0003,0.0004,-0.0021,-0.0022,-0.0023,-0.0024,-0.0025,0,0.0243,0.0291,0.0407,0.0464,0.0517,0.0625,0.07,0.076,0.08,0.0802,0.08,0.071,0.0628,0.0415,0.0265,0.0098,0.007,0.0021,-0.0002,0.0013,-0.0007,-0.0005,-0.0002,-0.0026,-0.0027,-0.0027,-0.0027,0,0.0288,0.0319,0.0395,0.0508,0.0604,0.0713,0.0812,0.085,0.0903,0.0909,0.085,0.0734,0.0601,0.041,0.0278,0.0155,0.0044,0.0011,0.0012,-0.0011,0.0006,-0.0012,-0.0009,-0.0031,-0.003,-0.003,-0.003,0,0.0316,0.0366,0.0454,0.0554,0.0667,0.0766,0.0822,0.0877,0.0929,0.0918,0.0892,0.0753,0.0663,0.044,0.0316,0.0186,0.0149,0.0098,0.0094,0.0096,0.0115,0.0153,0.015,0,0,0,0,0,0.0352,0.0411,0.0496,0.0614,0.0716,0.0787,0.0881,0.0921,0.0967,0.0937,0.0922,0.0802,0.0589,0.0476,0.0345,0.0291,0.0123,0.013,0.0063,-0.0049,-0.0046,-0.0048,0,0,0,0,0,0,0.0377,0.0463,0.0503,0.0643,0.0723,0.0855,0.0918,0.0945,0.0917,0.092,0.0802,0.0759,0.0545,0.0674,0.0341,0.0299,0.0233,0.0034,0.0031,-0.0052,-0.0048,-0.0045,-0.0046,0,0,0,0,0]}]]